Weather History for PAGK - March, 2014

Change the Weather History Date:

Thursday, March 13, 2014

  Actual Average Record
Temperature  
Mean Temperature 34 °F -  
Max Temperature 44 °F 29 °F 44 °F (2005)
Min Temperature 24 °F 2 °F -34 °F (2011)
Degree Days  
Heating Degree Days 31    
Moisture  
Dew Point 14 °F    
Average Humidity 42    
Maximum Humidity 53    
Minimum Humidity 23    
Precipitation  
Precipitation 0.00 in - - ()
Sea Level Pressure  
Sea Level Pressure 29.41 in    
Wind  
Wind Speed 15 mph (ENE)    
Max Wind Speed 25 mph    
Max Gust Speed 34 mph    
Visibility 10 miles    
Events      
Averages and records for this station are not official NWS values.
T = Trace of Precipitation, MM = Missing Value Source: NWS Daily Summary

Daily Weather History Graph

Daily Weather History Graph

Search for Another Location

Airport or City:

Trip Planner

Search our weather history database for the weather conditions in past years. The results will help you decide how hot, cold, wet, or windy it might be!

Date:

Astronomy

Mar. 13, 2014 Rise Set
Actual Time 8:05 AM AKDT 7:38 PM AKDT
Civil Twilight 7:20 AM AKDT 8:23 PM AKDT
Nautical Twilight 6:28 AM AKDT 9:15 PM AKDT
Astronomical Twilight 5:32 AM AKDT 10:12 PM AKDT
Moon 4:39 PM AKDT (3/13) 6:56 AM AKDT (3/13)
Length of Visible Light 13h 02m
Length of Day
11h 33m
Waxing Gibbous, 92% of the Moon is Illuminated
Mar 13
Waxing Gibbous
Mar 16
Full
Mar 23
Last Quarter
Mar 30
New
Apr 7
First Quarter

Hourly Weather History & Observations

Time (AKDT) Temp. Windchill Dew Point Humidity Pressure Visibility Wind Dir Wind Speed Gust Speed Precip Events Conditions
12:53 AM 28.9 °F 16.5 °F 12.9 °F 51% 29.63 in 10.0 mi SSE 18.4 mph 28.8 mph N/A   Partly Cloudy
1:53 AM 30.0 °F 16.6 °F 12.0 °F 47% 29.61 in 10.0 mi SSE 23.0 mph 34.5 mph N/A   Scattered Clouds
2:53 AM 28.9 °F 14.5 °F 12.0 °F 49% 29.59 in 10.0 mi SSE 25.3 mph 32.2 mph N/A   Clear
3:53 AM 28.9 °F 15.1 °F 12.0 °F 49% 29.58 in 10.0 mi SSE 23.0 mph 28.8 mph N/A   Clear
4:53 AM 30.0 °F 17.9 °F 12.0 °F 47% 29.55 in 10.0 mi SSE 18.4 mph - N/A   Clear
5:53 AM 30.0 °F 20.5 °F 10.9 °F 45% 29.53 in 10.0 mi SE 11.5 mph 20.7 mph N/A   Clear
6:53 AM 28.9 °F 21.1 °F 12.0 °F 49% 29.50 in 10.0 mi East 8.1 mph - N/A   Clear
7:53 AM 26.1 °F 15.0 °F 10.9 °F 53% 29.49 in 10.0 mi NNE 12.7 mph - N/A   Clear
8:53 AM 25.0 °F 16.3 °F 10.0 °F 53% 29.47 in 10.0 mi NNE 8.1 mph - N/A   Clear
9:53 AM 25.0 °F 14.8 °F 10.0 °F 53% 29.47 in 10.0 mi NE 10.4 mph - N/A   Mostly Cloudy
10:53 AM 27.0 °F 16.1 °F 9.0 °F 47% 29.45 in 10.0 mi NNE 12.7 mph - N/A   Overcast
11:53 AM 30.0 °F 21.7 °F 10.0 °F 43% 29.43 in 10.0 mi NNE 9.2 mph - N/A   Scattered Clouds
12:53 PM 36.0 °F 29.6 °F 12.0 °F 37% 29.39 in 10.0 mi NNE 8.1 mph - N/A   Clear
1:53 PM 42.1 °F 33.9 °F 18.0 °F 38% 29.37 in 10.0 mi SE 17.3 mph 26.5 mph N/A   Overcast
2:53 PM 44.1 °F 36.2 °F 19.0 °F 37% 29.35 in 10.0 mi SSE 18.4 mph 28.8 mph N/A   Overcast
3:23 PM 42.1 °F 35.7 °F 15.1 °F 34% 29.28 in 10.0 mi NNE 11.5 mph - N/A   Overcast
3:53 PM 41.0 °F 33.9 °F 16.0 °F 36% 29.34 in 10.0 mi NNE 12.7 mph - N/A   Mostly Cloudy
4:53 PM 41.0 °F 35.2 °F 14.0 °F 33% 29.32 in 10.0 mi NE 9.2 mph - N/A   Clear
5:53 PM 39.9 °F 34.5 °F 14.0 °F 35% 29.29 in 10.0 mi ENE 8.1 mph - N/A   Clear
6:53 PM 39.0 °F - 15.1 °F 38% 29.29 in 10.0 mi Calm Calm - N/A   Clear
7:53 PM 37.0 °F 31.6 °F 16.0 °F 42% 29.28 in 10.0 mi NE 6.9 mph - N/A   Partly Cloudy
8:53 PM 39.0 °F 34.0 °F 17.1 °F 41% 29.26 in 10.0 mi East 6.9 mph - N/A   Clear
9:53 PM 37.0 °F 31.6 °F 17.1 °F 44% 29.26 in 10.0 mi ENE 6.9 mph - N/A   Clear
10:53 PM 32.0 °F 24.2 °F 16.0 °F 52% 29.26 in 10.0 mi NNE 9.2 mph - N/A   Clear
11:53 PM 32.0 °F 23.6 °F 15.1 °F 50% 29.26 in 10.0 mi NNE 10.4 mph - N/A   Clear